STARLINK-35181, 65666

Orbit data source: Space-Track

STARLINK-35181, 65666 is a payload satellite owned by SpaceX/Seattle (US) in SSO that was launched on Fri, 19 Sep 2025 UTC via an FALCON 9 launch vehicle from the Air Force Western Test Range (AFWTR). Payload-class satellites include a variety of spacecraft equipped with specific instruments for various scientific and technological missions. These include communications satellites like Starlink; space stations such as the ISS; scientific satellites like the Hubble; Earth observation satellites from companies like Planet Labs, Umbra, and HawkEye 360; GPS; miniature CubeSats for education and research; and military/defense satellites.

Loading next visibility...
Identifier
65666, 2025-211Q
Orbit
SSO
Country
Flag of USUS
Related business
Manufacturer
SpaceX/Seattle
Mission
Operational Commercial Communications
Bus & Motor
STARLINK V2MO, Unknown motor
Mass
575 kg wet, ~530 kg dry
Launch date (UTC)
2025-09-19 (9 months ago)
Launch vehicle
FALCON 9
Launch site
Air Force Western Test Range (AFWTR)
Object type
Payload
Rocket body
Debris
Shape & HBR
Box + 2 Pan, 17.7 m
Radar Cross Section
36.964 m², Large (>1 m²)

Expand to show TLE details & history
Last TLE update: 13 hours ago

TLE from 13 hours ago
0 STARLINK-35181
1 65666U 25211Q   26171.36443000  .00006323  00000-0  44167-3 0  9996
2 65666  97.3353 214.2190 0001504 108.2204 251.9187 15.05657962 42495
Epoch: 2026-06-20T08:44Z
TLE epoch observation values (Epoch: 2026-06-20T08:44:46.752Z)
Latitude
-0.00003°
Longitude
174.44409°
Altitude
552.883 km
Speed
7.585 km/s
True Right ascension
14h 16m 52s
True Declination
0° 00' 00"
Sunlit
Object was in full shadow at epoch
Visualization orbit readout
Latitude
Unknown
Longitude
Unknown
Altitude
Unknown
Speed
Unknown
Apparent Right ascension
Unknown
Apparent Declination
Unknown
Sunlit
N/A
Visualization observer readout
Local Sidereal Time
08:32:24
Azimuth
Unknown
Elevation
Unknown
Doppler factor
Unknown
Orbital elements
Apogee altitude
547.51 km
Perigee altitude
545.427 km
Semi-major axis
6,924.606 km
Eccentricity
0.00015
Inclination
97.3353°
RAAN
214.219°
Arg. of periapsis
108.2204°
True anomaly
251.90232°
Mean anomaly
251.9187°
Eccentric anomaly
251.91051°
Mean motion
3.76661 °/min
Orbital period
95.58 mins
BSTAR
0.00044167
Loading maneuver chart data...
Computing Atmospheric mass density...
Loading historical data...
Loading historical data...
Loading historical data...
Loading historical data...
Loading historical data...
Loading historical data...
Loading historical data...

Documentation

Showing up to 5 results
|